This is the latest recevied weather packets stored in our database for station/object N8ESC. If no packets are shown the sender has not sent any weather packets the latest 10 day(s).
| Time | Temp. | Humidity | Pressure | Rain* | Wind** | Luminosity | Snow |
|---|---|---|---|---|---|---|---|
| 1777567333 | 5.56° C | 62% | 1015 hPa | 0 mm | - | 307 W/m² | - |
| 1777567031 | 5.56° C | 61% | 1014.9 hPa | 0 mm | - | 375 W/m² | - |
| 1777566728 | 5.56° C | 65% | 1015 hPa | 0 mm | - | 358 W/m² | - |
| 1777566426 | 5.56° C | 64% | 1014.8 hPa | 0 mm | - | 384 W/m² | - |
| 1777566123 | 5.56° C | 64% | 1015 hPa | 0 mm | - | 430 W/m² | - |
| 1777565818 | 5.56° C | 63% | 1015 hPa | 0 mm | - | 416 W/m² | - |
| 1777565515 | 5.56° C | 63% | 1014.8 hPa | 0 mm | - | 385 W/m² | - |
| 1777565211 | 5.56° C | 63% | 1014.8 hPa | 0 mm | - | 383 W/m² | - |
| 1777564907 | 5.56° C | 66% | 1015 hPa | 0 mm | - | 368 W/m² | - |
| 1777564602 | 5.56° C | 63% | 1014.8 hPa | 0 mm | - | 344 W/m² | - |
| 1777564298 | 5° C | 66% | 1014.9 hPa | 0 mm | - | 330 W/m² | - |
| 1777563995 | 5° C | 67% | 1014.9 hPa | 0 mm | - | 319 W/m² | - |
| 1777563691 | 5° C | 67% | 1015 hPa | 0 mm | - | 257 W/m² | - |
| 1777563387 | 5° C | 68% | 1015.1 hPa | 0 mm | - | 249 W/m² | - |
| 1777563082 | 4.44° C | 68% | 1015.1 hPa | 0 mm | - | 298 W/m² | - |
| 1777562778 | 4.44° C | 67% | 1014.9 hPa | 0 mm | - | 278 W/m² | - |
| 1777562476 | 5° C | 67% | 1014.8 hPa | 0 mm | - | 294 W/m² | - |
| 1777562173 | 4.44° C | 68% | 1015 hPa | 0 mm | - | 303 W/m² | - |
| 1777561871 | 4.44° C | 69% | 1015 hPa | 0 mm | - | 232 W/m² | - |
| 1777561568 | 4.44° C | 71% | 1014.9 hPa | 0 mm | - | 245 W/m² | - |
| 1777561263 | 3.89° C | 72% | 1014.9 hPa | 0 mm | - | 250 W/m² | - |
| 1777560962 | 3.89° C | 71% | 1015.1 hPa | 0 mm | - | 249 W/m² | - |
| 1777560659 | 4.44° C | 70% | 1015.2 hPa | 0 mm | - | 282 W/m² | - |
| 1777560357 | 3.89° C | 72% | 1015.1 hPa | 0 mm | - | 266 W/m² | - |
| 1777560054 | 4.44° C | 72% | 1015.2 hPa | 0 mm | - | 232 W/m² | - |
* Rain latest hour (hover to see other rain measurements)
** Current wind speed in m/s (hover to see current wind gust speed)